Torna al catalogo

COSMOS 371

AttivoMilitareLEO
NORAD 4578·PAYLOAD·🇷🇺 Russia

Lanciato Oct 12, 1970 da Plesetsk Cosmodrome

Loading…

Prossimi Passaggi (prossime 24 ore)

TLE

AggiornatoSource: Space-Track

Epoca: Sep 14, 2026, 14:24 UTC

1 04578U 70083A   26257.60012580  .00000180  00000-0  47651-4 0  9992
2 04578  74.0002   3.8158 0003123 309.2386  50.8500 14.55863284958606

Traccia COSMOS 371 in tempo reale con AllMySat

Download on the App Store